Flag for U.S.A. Weather past 2 weeks in Santa Clarita, California, U.S.A.

Now
66 °F

Sunny.


Feels Like: 66 °F
Forecast: 43 / 72 °F
Wind: 6 mph from North

Location: Van Nuys Airport

Current Time: Mar 5, 2015 at 11:01:16 AM

Latest Report: Mar 5, 2015 at 9:51 AM


Visibility: 10 mi

Pressure: 30.27 "Hg

Humidity: 21%

Dew point: 25 °F

Location of Santa ClaritaLocation

Historic Weather in Santa Clarita — Graph

°F

Santa Clarita temperature yesterday

Maximum temperature yesterday: 72 °F (at 1:51 PM)
Minimum temperature yesterday: 44 °F (at 4:51 AM)
Average temperature yesterday: 58 °F

Past Weeks' High & Low Weather Summary

 TemperatureHumidityPressure
High78 °F (Feb 18, 1:51 PM)97% (Mar 3, 6:51 AM)30.27 "Hg (Mar 3, 6:51 AM)
Low43 °F (Mar 3, 6:51 AM)18% (Mar 4, 12:51 PM)29.72 "Hg (Feb 27, 6:51 PM)
Average57 °F65%29.96 "Hg
* Reported Feb 18 9:51 AM — Mar 5 9:51 AM, Santa Clarita, Weather by CustomWeather, © 2015

Note: Actual official high and low records may vary slightly from our data, if they occured in-between our weather recording intervals... More about our weather records

Advertising

Santa Clarita weather history for previous 24 hours

 ConditionsComfort  
Time TempWeatherWind HumidityBarometerVisibility
9:51 AM
Thu, Mar 5
66 °FSunny.6 mph21%30.27 "Hg10 mi
8:51 AM59 °FSunny.3 mph32%30.27 "Hg10 mi
7:51 AM50 °FSunny.No wind46%30.27 "Hg10 mi
6:51 AM45 °FSunny.No wind56%30.24 "Hg10 mi
5:51 AM44 °FClear.No wind58%30.22 "Hg10 mi
4:51 AM46 °FClear.No wind51%30.19 "Hg10 mi
3:51 AM47 °FClear.No wind48%30.17 "Hg10 mi
2:51 AM48 °FClear.No wind50%30.16 "Hg10 mi
1:51 AM48 °FClear.No wind50%30.16 "Hg10 mi
12:51 AM50 °FClear.No wind43%30.15 "Hg10 mi
11:51 PM
Wed, Mar 4
52 °FClear.No wind40%30.15 "Hg10 mi
10:51 PM53 °FClear.No wind35%30.14 "Hg10 mi
9:51 PM58 °FClear.No wind25%30.14 "Hg10 mi
8:51 PM60 °FClear.No wind22%30.12 "Hg10 mi
7:51 PM60 °FClear.9 mph25%30.10 "Hg10 mi
6:51 PM62 °FClear.3 mph32%30.09 "Hg10 mi
5:51 PM63 °FSunny.6 mph31%30.07 "Hg10 mi
4:51 PM68 °FSunny.8 mph26%30.05 "Hg10 mi
3:51 PM71 °FSunny.N/A25%30.03 "Hg10 mi
2:51 PM71 °FSunny.6 mph22%30.03 "Hg10 mi
1:51 PM72 °FSunny.8 mph20%30.03 "Hg10 mi
12:51 PM70 °FSunny.13 mph18%30.05 "Hg10 mi
11:51 AM68 °FSunny.10 mph22%30.06 "Hg10 mi
Weather by CustomWeather, © 2015

See weather overviewHow to use our weather pages